Weather History for Wadesboro, NC

Change the Weather History Date:

Monday, December 31, 2012

  Actual Average (KCLT) Record (KCLT)
Temperature  
Mean Temperature 40 °F 40 °F  
Max Temperature 55 °F 50 °F 70 °F (1996)
Min Temperature 24 °F 30 °F 0 °F (1890)
Degree Days  
Heating Degree Days 26 25  
Month to date heating degree days 701  
Since 1 July heating degree days 1337  
Cooling Degree Days 0 0  
Month to date cooling degree days 1  
Year to date cooling degree days 1518  
Moisture  
Dew Point 25 °F    
Average Humidity 62    
Maximum Humidity 92    
Minimum Humidity 26    
Precipitation  
Precipitation 0.00 in 0.10 in 2.15 in (1981)
Month to date precipitation 3.25  
Year to date precipitation 41.63  
Snow  
Snow 0.00 in 0.00 in 1.50 in (1894)
Month to date snowfall 0.3  
Since 1 July snowfall 0.4  
Snow Depth -    
Sea Level Pressure  
Sea Level Pressure 30.29 in    
Wind  
Wind Speed 2 mph (SSW)    
Max Wind Speed 12 mph    
Max Gust Speed 16 mph    
Visibility 10 miles    
Events      
T = Trace of Precipitation, MM = Missing Value Source: NWS Daily Summary

Daily Weather History Graph

Daily Weather History Graph

Search for Another Location

Airport:

Trip Planner

Search our weather history database for the weather conditions in past years. The results will help you decide how hot, cold, wet, or windy it might be!

Date:

Astronomy

Dec. 31, 2012 Rise Set
Actual Time 7:28 AM EST 5:19 PM EST
Civil Twilight 7:00 AM EST 5:47 PM EST
Nautical Twilight 6:28 AM EST 6:18 PM EST
Astronomical Twilight 5:57 AM EST 6:49 PM EST
Moon 8:39 PM EST (12/31) 9:16 AM EST (12/31)
Length of Visible Light 10h 46m
Length of Day
9h 50m
Waning Gibbous, 90% of the Moon is Illuminated
Dec 31
Waning Gibbous
Jan 4
Last Quarter
Jan 11
New
Jan 18
First Quarter
Jan 26
Full

Hourly Weather History & Observations

Time (EST) Temp. Windchill Dew Point Humidity Pressure Visibility Wind Dir Wind Speed Gust Speed Precip Events Conditions
12:15 AM 26.2 °F - 22.3 °F 85% 30.37 in 10.0 mi Calm Calm - N/A   Clear
12:35 AM 27.1 °F - 23.7 °F 87% 30.38 in 10.0 mi Calm Calm - N/A   Clear
12:55 AM 27.1 °F - 23.9 °F 88% 30.38 in 10.0 mi Calm Calm - N/A   Clear
1:15 AM 26.6 °F - 23.0 °F 86% 30.37 in 10.0 mi Calm Calm - N/A   Clear
1:35 AM 26.6 °F - 23.5 °F 88% 30.36 in 10.0 mi Calm Calm - N/A   Clear
1:55 AM 26.6 °F - 23.5 °F 88% 30.37 in 10.0 mi Calm Calm - N/A   Clear
2:15 AM 26.6 °F - 23.7 °F 89% 30.36 in 10.0 mi Calm Calm - N/A   Clear
2:35 AM 26.8 °F - 24.3 °F 90% 30.37 in 10.0 mi Calm Calm - N/A   Clear
2:55 AM 26.6 °F - 23.9 °F 90% 30.37 in 10.0 mi Calm Calm - N/A   Clear
3:15 AM 27.0 °F - 24.4 °F 90% 30.38 in 10.0 mi Calm Calm - N/A   Clear
3:35 AM 27.0 °F - 24.6 °F 91% 30.38 in 10.0 mi Calm Calm - N/A   Clear
3:55 AM 25.7 °F - 23.5 °F 92% 30.37 in 10.0 mi Calm Calm - N/A   Clear
4:15 AM 25.7 °F - 23.5 °F 92% 30.37 in 10.0 mi Calm Calm - N/A   Clear
4:35 AM 25.9 °F - 23.7 °F 92% 30.37 in 10.0 mi Calm Calm - N/A   Clear
4:55 AM 26.2 °F - 23.9 °F 91% 30.37 in 10.0 mi Calm Calm - N/A   Clear
5:15 AM 25.0 °F - 22.5 °F 90% 30.37 in 10.0 mi Calm Calm - N/A   Clear
5:35 AM 25.3 °F - 23.0 °F 91% 30.37 in 10.0 mi Calm Calm - N/A   Clear
5:55 AM 24.8 °F - 22.6 °F 91% 30.36 in 10.0 mi Calm Calm - N/A   Clear
6:15 AM 25.3 °F - 23.0 °F 91% 30.36 in 10.0 mi Calm Calm - N/A   Clear
6:35 AM 27.0 °F - 24.8 °F 92% 30.38 in 10.0 mi Calm Calm - N/A   Clear
6:55 AM 27.3 °F - 25.2 °F 92% 30.37 in 10.0 mi Calm Calm - N/A   Clear
7:15 AM 27.9 °F - 25.5 °F 91% 30.37 in 10.0 mi Calm Calm - N/A   Clear
7:35 AM 28.2 °F - 25.5 °F 90% 30.37 in 10.0 mi Calm Calm - N/A   Clear
7:55 AM 29.1 °F - 26.6 °F 90% 30.38 in 10.0 mi Calm Calm - N/A   Clear
8:15 AM 28.9 °F - 26.4 °F 90% 30.38 in 10.0 mi Calm Calm - N/A   Clear
8:35 AM 30.0 °F - 27.3 °F 90% 30.38 in 10.0 mi Calm Calm - N/A   Clear
8:55 AM 31.8 °F - 28.8 °F 88% 30.38 in 10.0 mi Calm Calm - N/A   Clear
9:15 AM 35.1 °F - 29.3 °F 80% 30.39 in 10.0 mi Calm Calm - N/A   Clear
9:35 AM 37.9 °F - 29.1 °F 71% 30.38 in 10.0 mi Calm Calm - N/A   Clear
9:55 AM 41.2 °F 38.2 °F 27.5 °F 58% 30.36 in 10.0 mi SSW 4.6 mph - N/A   Clear
10:15 AM 43.7 °F 41.1 °F 27.3 °F 53% 30.36 in 10.0 mi SSW 4.6 mph - N/A   Clear
10:35 AM 46.4 °F 42.4 °F 26.8 °F 46% 30.36 in 10.0 mi SSW 8.1 mph - N/A   Clear
10:55 AM 46.0 °F 41.9 °F 25.2 °F 44% 30.35 in 10.0 mi SSW 8.1 mph - N/A   Clear
11:15 AM 48.0 °F - 25.2 °F 41% 30.36 in 10.0 mi SSW 11.5 mph - N/A   Clear
11:35 AM 49.8 °F - 26.1 °F 40% 30.33 in 10.0 mi SSW 4.6 mph - N/A   Clear
11:55 AM 51.6 °F - 25.5 °F 36% 30.31 in 10.0 mi South 5.8 mph - N/A   Clear
12:15 PM 51.6 °F - 20.8 °F 30% 30.29 in 10.0 mi South 9.2 mph - N/A   Clear
12:35 PM 52.9 °F - 21.4 °F 29% 30.28 in 10.0 mi SSW 9.2 mph - N/A   Clear
12:55 PM 52.9 °F - 18.5 °F 26% 30.27 in 10.0 mi SSW 11.5 mph 16.1 mph N/A   Clear
1:15 PM 54.3 °F - 19.8 °F 26% 30.27 in 10.0 mi SSW 6.9 mph - N/A   Clear
1:35 PM 54.1 °F - 20.1 °F 26% 30.26 in 10.0 mi SSW 9.2 mph - N/A   Clear
1:55 PM 54.9 °F - 20.3 °F 26% 30.25 in 10.0 mi South 6.9 mph - N/A   Clear
2:15 PM 55.0 °F - 21.2 °F 27% 30.23 in 10.0 mi South 8.1 mph - N/A   Clear
2:35 PM 54.7 °F - 21.7 °F 28% 30.23 in 10.0 mi South 6.9 mph - N/A   Clear
2:55 PM 53.8 °F - 21.7 °F 29% 30.23 in 10.0 mi South 8.1 mph - N/A   Clear
3:15 PM 54.5 °F - 21.7 °F 28% 30.22 in 10.0 mi SSW 5.8 mph - N/A   Clear
3:35 PM 54.3 °F - 21.2 °F 28% 30.21 in 10.0 mi SSW 5.8 mph - N/A   Clear
3:55 PM 54.5 °F - 21.4 °F 28% 30.21 in 10.0 mi South 6.9 mph - N/A   Clear
4:15 PM 53.8 °F - 21.2 °F 28% 30.21 in 10.0 mi South 4.6 mph - N/A   Clear
4:35 PM 52.5 °F - 23.4 °F 32% 30.20 in 10.0 mi Calm Calm - N/A   Clear
4:55 PM 51.1 °F - 23.5 °F 34% 30.21 in 10.0 mi SSW 3.5 mph - N/A   Clear
5:15 PM 50.0 °F - 23.7 °F 36% 30.20 in 10.0 mi South 3.5 mph - N/A   Scattered Clouds
5:35 PM 48.9 °F - 25.5 °F 40% 30.21 in 10.0 mi Calm Calm - N/A   Mostly Cloudy
5:55 PM 48.6 °F - 26.6 °F 42% 30.21 in 10.0 mi Calm Calm - N/A   Overcast
6:15 PM 48.6 °F - 27.3 °F 44% 30.21 in 10.0 mi Calm Calm - N/A   Overcast
6:35 PM 47.5 °F - 30.4 °F 52% 30.21 in 10.0 mi Calm Calm - N/A   Overcast
7:15 PM 48.2 °F - 28.0 °F 46% 30.21 in 10.0 mi Calm Calm - N/A   Overcast
7:35 PM 48.2 °F - 27.3 °F 44% 30.20 in 10.0 mi Calm Calm - N/A   Overcast
8:15 PM 48.2 °F - 28.0 °F 46% 30.19 in 10.0 mi Calm Calm - N/A   Overcast
8:35 PM 48.6 °F - 27.0 °F 43% 30.18 in 10.0 mi Calm Calm - N/A   Overcast
8:55 PM 47.7 °F - 29.7 °F 50% 30.18 in 10.0 mi Calm Calm - N/A   Mostly Cloudy
9:15 PM 45.1 °F - 30.4 °F 56% 30.17 in 10.0 mi Calm Calm - N/A   Scattered Clouds
9:35 PM 43.0 °F 41.3 °F 30.4 °F 61% 30.17 in 10.0 mi South 3.5 mph - N/A   Clear
9:55 PM 43.3 °F - 31.3 °F 62% 30.16 in 10.0 mi Calm Calm - N/A   Clear
10:15 PM 42.3 °F - 31.8 °F 67% 30.17 in 10.0 mi Calm Calm - N/A   Clear
10:35 PM 41.4 °F - 32.4 °F 70% 30.16 in 10.0 mi Calm Calm - N/A   Scattered Clouds
10:55 PM 41.2 °F - 32.5 °F 71% 30.17 in 10.0 mi Calm Calm - N/A   Scattered Clouds
11:15 PM 41.2 °F - 34.2 °F 76% 30.15 in 10.0 mi Calm Calm - N/A   Clear
11:35 PM 41.9 °F - 35.2 °F 77% 30.14 in 10.0 mi Calm Calm - N/A   Scattered Clouds